(220924) = 2005 GO50 = 2002 RL27 = 1995 MQ3

Discovered at Kitt Peak on 2005-04-05 by Spacewatch.

Orbit

Orbit type: Main Belt

Note: WebGL enabled browser required.

epoch2023-09-13.0
epoch JD2460200.5
perihelion date2022-10-01.45496
perihelion JD2459853.95496
argument of perihelion (°)66.74576
ascending node (°)198.59142
inclination (°)6.88397
eccentricity0.2461506
perihelion distance (AU)1.7159854
Tisserand w.r.t. Jupiter3.6
ΔV w.r.t. Earth (km/sec)8.3
semimajor axis (AU)2.2762975
mean anomaly (°)99.45349
mean daily motion (°/day)0.28698570
aphelion distance (AU)2.837
period (years)3.43
P-vector [x]-0.08340348
P-vector [y]-0.95248973
P-vector [z]-0.29292862
Q-vector [x]0.99578292
Q-vector [y]-0.09093220
Q-vector [z]0.01215392
absolute magnitude17.86
phase slope0.15
uncertainty0
referenceMPEC 2023-X152
observations used244
oppositions12
arc length (days)10391
first opposition used1995
last opposition used2023
residual rms (arc-secs)0.71
perturbers coarse indicatorM-v
perturbers precise indicator003Ek
first observation date used1995-06-26.0
last observation date used2023-12-07.0
computer nameMPCLINUX
Minimum Orbit Intersection Distances (in AU)
for orbit epoch: 2460200.5, reference: E2023-XF2
Mercury1.2597
Venus0.99797
Earth0.71438
Mars0.25056
Jupiter2.2669
Saturn6.23336
Uranus15.9807
Neptune27.1332

Observations

253 total observations over interval: 1995 06 26.31992 – 2023 12 07.232743
These data are available for download (format description).

Date (UT) J2000 RA J2000 Dec Magn Location Ref
1995 06 26.31992 21 22 56.41 -01 37 50.5   691 – Steward Observatory, Kitt Peak-Spacewatch MPC 25505
1995 06 26.34120 21 22 56.53 -01 37 43.5   691 – Steward Observatory, Kitt Peak-Spacewatch MPC 25505
1995 06 26.36217 21 22 56.65 -01 37 37.6 21.0 V 691 – Steward Observatory, Kitt Peak-Spacewatch MPC 25505
1995 07 05.34352 21 22 38.72 -01 05 01.7 20.5 V 691 – Steward Observatory, Kitt Peak-Spacewatch MPC 25505
1995 07 05.36490 21 22 38.42 -01 04 59.0   691 – Steward Observatory, Kitt Peak-Spacewatch MPC 25505
1995 07 05.38570 21 22 38.09 -01 04 56.1   691 – Steward Observatory, Kitt Peak-Spacewatch MPC 25505
2002 09 04.28606 23 10 42.04 +02 43 43.7 19.6 R 699 – Lowell Observatory-LONEOS MPS 61599
2002 09 04.31415 23 10 40.54 +02 43 26.6   699 – Lowell Observatory-LONEOS MPS 61599
2002 09 04.34225 23 10 38.90 +02 43 08.5   699 – Lowell Observatory-LONEOS MPS 61599
2002 09 04.37033 23 10 37.06 +02 42 52.4   699 – Lowell Observatory-LONEOS MPS 61599
2002 09 05.94572 23 09 13.17 +02 26 47.6   557 – Ondrejov MPS 61599
2002 09 05.95197 23 09 12.76 +02 26 43.3   557 – Ondrejov MPS 61599
2002 09 05.95949 23 09 12.39 +02 26 40.2   557 – Ondrejov MPS 61599
2002 09 05.97921 23 09 11.28 +02 26 27.4 20.0 V 557 – Ondrejov MPS 61599
2002 09 06.18283 23 09 00.64 +02 24 23.0 19.7 R 649 – Powell Observatory, Louisburg MPS 61599
2002 09 06.20589 23 08 59.36 +02 24 08.8 19.4 R 649 – Powell Observatory, Louisburg MPS 61599
2002 09 06.22856 23 08 58.08 +02 23 54.7 19.2 R 649 – Powell Observatory, Louisburg MPS 61599
2002 09 06.91317 23 08 21.50 +02 16 50.5   246 – Klet Observatory-KLENOT MPS 61599
2002 09 06.91449 23 08 21.41 +02 16 49.4   246 – Klet Observatory-KLENOT MPS 61599
2002 09 06.91565 23 08 21.33 +02 16 48.3   246 – Klet Observatory-KLENOT MPS 61599
2002 09 06.91689 23 08 21.29 +02 16 47.7   246 – Klet Observatory-KLENOT MPS 61599
2002 09 06.91823 23 08 21.21 +02 16 46.4   246 – Klet Observatory-KLENOT MPS 61599
2002 09 06.91936 23 08 21.11 +02 16 45.3   246 – Klet Observatory-KLENOT MPS 61599
2005 03 11.42605 14 40 38.92 -15 36 36.8 19.7 R G96 – Mt. Lemmon Survey MPS 134906
2005 03 11.43392 14 40 39.18 -15 36 35.2 20.0 R G96 – Mt. Lemmon Survey MPS 134906
2005 03 11.44184 14 40 39.38 -15 36 34.2 19.5 R G96 – Mt. Lemmon Survey MPS 134906
2005 03 11.44974 14 40 39.62 -15 36 33.5 19.8 R G96 – Mt. Lemmon Survey MPS 134906
2005 04 05.43755 14 44 25.13 -13 23 59.0 20.3 V 691 – Steward Observatory, Kitt Peak-Spacewatch MPS 130912
2005 04 05.45510 14 44 24.75 -13 23 50.3 20.5 V 691 – Steward Observatory, Kitt Peak-Spacewatch MPS 130912
2005 04 05.47299 14 44 24.44 -13 23 41.2 20.5 V 691 – Steward Observatory, Kitt Peak-Spacewatch MPS 130912
2005 04 06.28281 14 44 11.48 -13 16 52.6 19.3 R G96 – Mt. Lemmon Survey MPS 130912
2005 04 06.28810 14 44 11.37 -13 16 49.7 19.1 R G96 – Mt. Lemmon Survey MPS 130912
2005 04 06.29338 14 44 11.26 -13 16 47.2 19.2 R G96 – Mt. Lemmon Survey MPS 130912
2005 04 06.29863 14 44 11.13 -13 16 44.1 18.7 R G96 – Mt. Lemmon Survey MPS 130912
2005 05 03.34685 14 27 43.19 -08 34 36.2 18.9   704 – Lincoln Laboratory ETS, New Mexico MPS 134906
2005 05 03.35725 14 27 42.56 -08 34 27.9 19.1   704 – Lincoln Laboratory ETS, New Mexico MPS 134906
2005 05 03.36737 14 27 42.05 -08 34 21.8 19.0   704 – Lincoln Laboratory ETS, New Mexico MPS 134906
2005 05 03.37823 14 27 41.51 -08 34 15.0 19.2   704 – Lincoln Laboratory ETS, New Mexico MPS 134906
2005 05 07.30148 14 24 42.73 -07 52 05.1 19.6 V 703 – Catalina Sky Survey MPS 134033
2005 05 07.30819 14 24 42.40 -07 51 59.9 18.9 V 703 – Catalina Sky Survey MPS 134033
2005 05 07.31490 14 24 42.12 -07 51 55.6 19.4 V 703 – Catalina Sky Survey MPS 134033
2005 05 07.32159 14 24 41.76 -07 51 51.3 19.2 V 703 – Catalina Sky Survey MPS 134033
2005 05 11.21079 14 21 53.12 -07 12 14.3 19.2 R 699 – Lowell Observatory-LONEOS MPS 134033
2005 05 11.22992 14 21 52.28 -07 12 01.9   699 – Lowell Observatory-LONEOS MPS 134033
2005 05 11.24910 14 21 51.29 -07 11 50.1   699 – Lowell Observatory-LONEOS MPS 134033
2005 05 11.26819 14 21 50.50 -07 11 39.3   699 – Lowell Observatory-LONEOS MPS 134033
2008 02 13.22872 09 30 53.06 +04 45 01.8 21.1 V G96 – Mt. Lemmon Survey MPS 237541
2008 02 13.23354 09 30 52.77 +04 45 03.7 21.1 V G96 – Mt. Lemmon Survey MPS 237541
2008 02 13.23830 09 30 52.45 +04 45 05.5 21.2 V G96 – Mt. Lemmon Survey MPS 237541
2008 02 13.24307 09 30 52.16 +04 45 07.9 20.4 V G96 – Mt. Lemmon Survey MPS 237541
2008 03 11.22224 09 06 25.56 +07 59 40.9 20.9 V G96 – Mt. Lemmon Survey MPS 242107
2008 03 11.22991 09 06 25.16 +07 59 44.3 21.2 V G96 – Mt. Lemmon Survey MPS 242107
2008 03 11.23722 09 06 24.91 +07 59 47.2 21.6 V G96 – Mt. Lemmon Survey MPS 242107
2008 03 11.24480 09 06 24.55 +07 59 50.3 21.4 V G96 – Mt. Lemmon Survey MPS 242107
2009 09 16.23148 00 52 02.70 +08 34 56.7 21.4 V 691 – Steward Observatory, Kitt Peak-Spacewatch MPS 294996
2009 09 16.24908 00 52 01.78 +08 34 48.0 20.9 V 691 – Steward Observatory, Kitt Peak-Spacewatch MPS 294996
2009 09 16.26669 00 52 00.87 +08 34 39.2 20.7 V 691 – Steward Observatory, Kitt Peak-Spacewatch MPS 294996
2009 09 20.23835 00 48 34.51 +07 59 10.7 20.6 V 691 – Steward Observatory, Kitt Peak-Spacewatch MPS 295820
2009 09 20.25597 00 48 33.53 +07 59 00.8 20.7 V 691 – Steward Observatory, Kitt Peak-Spacewatch MPS 295820
2009 09 20.27359 00 48 32.56 +07 58 51.0 20.7 V 691 – Steward Observatory, Kitt Peak-Spacewatch MPS 295820
2009 10 16.18176 00 25 04.98 +03 49 26.3 20.7 V G96 – Mt. Lemmon Survey MPS 299250
2009 10 16.18922 00 25 04.62 +03 49 22.5 21.1 V G96 – Mt. Lemmon Survey MPS 299250
2009 10 16.19671 00 25 04.26 +03 49 18.6 20.9 V G96 – Mt. Lemmon Survey MPS 299250
2009 10 16.20426 00 25 03.86 +03 49 14.8 20.8 V G96 – Mt. Lemmon Survey MPS 299250
2012 06 09.41368 17 51 21.999 -08 30 48.68 18.8 r F51 – Pan-STARRS 1, Haleakala MPS 427163
2012 06 09.42286 17 51 21.585 -08 30 45.65 18.7 r F51 – Pan-STARRS 1, Haleakala MPS 427163
2012 06 09.53798 17 51 16.396 -08 30 06.29 18.7 i F51 – Pan-STARRS 1, Haleakala MPS 427163
2012 06 09.54827 17 51 15.935 -08 30 02.80 18.7 i F51 – Pan-STARRS 1, Haleakala MPS 427163
2012 06 13.33421 17 48 38.19 -08 10 31.0 18.6 V G96 – Mt. Lemmon Survey MPS 427163
2012 06 13.34057 17 48 37.90 -08 10 29.1 18.8 V G96 – Mt. Lemmon Survey MPS 427163
2012 06 13.34693 17 48 37.58 -08 10 27.2 18.6 V G96 – Mt. Lemmon Survey MPS 427163
2012 06 13.35330 17 48 37.29 -08 10 25.3 19.5 V G96 – Mt. Lemmon Survey MPS 427163
2012 06 15.43938 17 47 07.113 -08 01 16.44 19.2 g F51 – Pan-STARRS 1, Haleakala MPS 427731
2012 06 15.44928 17 47 06.634 -08 01 14.04 19.1 g F51 – Pan-STARRS 1, Haleakala MPS 427731
2012 07 08.52428 17 32 57.22 -07 44 49.0 18.3 V E12 – Siding Spring Survey MPS 428311
2012 07 08.53802 17 32 56.86 -07 44 51.2 18.6 V E12 – Siding Spring Survey MPS 428311
2012 07 08.54937 17 32 56.61 -07 44 53.0 19.6 V E12 – Siding Spring Survey MPS 428311
2012 07 08.56080 17 32 56.29 -07 44 55.5 18.9 V E12 – Siding Spring Survey MPS 428311
2015 02 20.42953 10 50 26.430 -00 54 45.17 20.7 w F51 – Pan-STARRS 1, Haleakala MPS 582600
2015 02 20.44249 10 50 25.709 -00 54 39.94 20.7 w F51 – Pan-STARRS 1, Haleakala MPS 582600
2015 02 20.45518 10 50 24.996 -00 54 34.67 20.7 w F51 – Pan-STARRS 1, Haleakala MPS 582600
2015 02 20.46788 10 50 24.279 -00 54 29.51 20.7 w F51 – Pan-STARRS 1, Haleakala MPS 582600
2015 03 14.36395 10 29 21.683 +02 10 21.69 20.5 w F51 – Pan-STARRS 1, Haleakala MPS 591315
2015 03 14.37074 10 29 21.288 +02 10 25.56 20.6 w F51 – Pan-STARRS 1, Haleakala MPS 591315
2015 03 14.37603 10 29 20.972 +02 10 28.39 20.4 w F51 – Pan-STARRS 1, Haleakala MPS 591315
2015 03 14.38289 10 29 20.578 +02 10 32.33 20.5 w F51 – Pan-STARRS 1, Haleakala MPS 591315
2015 03 14.38820 10 29 20.278 +02 10 35.25 20.4 w F51 – Pan-STARRS 1, Haleakala MPS 591315
2015 03 14.39497 10 29 19.878 +02 10 39.09 20.5 w F51 – Pan-STARRS 1, Haleakala MPS 591315
2015 03 14.40712 10 29 19.170 +02 10 45.92 20.5 w F51 – Pan-STARRS 1, Haleakala MPS 591315
2015 03 15.38442 10 28 25.688 +02 19 54.03 20.6 w F51 – Pan-STARRS 1, Haleakala MPS 591315
2015 03 15.39674 10 28 24.980 +02 20 00.91 20.7 w F51 – Pan-STARRS 1, Haleakala MPS 591315
2015 03 15.40907 10 28 24.273 +02 20 07.92 20.7 w F51 – Pan-STARRS 1, Haleakala MPS 591315
2015 03 15.42136 10 28 23.571 +02 20 14.82 20.5 w F51 – Pan-STARRS 1, Haleakala MPS 591315
2016 10 06.52676 01 59 11.916 +10 57 56.81 21.0 w F51 – Pan-STARRS 1, Haleakala MPS 733750
